Tracking 19176 objects as of 26-May-2018
HD Live streaming from Space Station
objects crossing your sky now

N-1 R/B

Track N-1 R/B now!
10-day predictions


NORAD ID: 8710
Int'l Code: 1976-019B
Perigee: 996.0 km
Apogee: 1,018.5 km
Inclination: 69.7 °
Period: 105.1 minutes
Semi major axis: 7378 km
RCS: 1.547 m2 (large)
Launch date: February 29, 1976
Source: Japan (JPN)
Launch site: TANEGASHIMA SPACE CENTER (TNSTA)

Note: This is a ROCKET BODY
aabbcc
Your satellite tracking list
Your tracking list is empty




NASA's NSSDC Master Catalog

Two Line Element Set (TLE):
1  8710U 76019B   18145.61132851 -.00000043 +00000-0 +10270-4 0  9997
2  8710 069.6765 209.4973 0015250 234.6936 275.7632 13.69847273111798
Source of the keplerian elements: AFSPC